Wind_Speed
5 5 6 6 6 6 6 7 7 8 9 10 10 10 11 12 14 15 16 17 18 18 18 18 18 18 18 16 16 15 13 12 12 11 10 10 10 12 12 14 16 16 17
4 4 5 5 6 6 6 7 7 8 9 9 10 10 11 12 14 15 16 17 18 18 18 19 19 19 18 17 16 15 13 13 11 10 9 9 10 11 11 13 15 16 17
4 4 5 5 6 6 6 6 7 8 9 10 10 10 11 13 14 15 16 17 18 18 19 19 19 19 18 17 16 15 14 13 11 10 9 9 9 10 11 12 14 16 17
4 4 5 5 5 6 6 6 7 8 9 9 10 11 12 13 14 15 16 17 18 18 19 19 19 19 18 17 16 16 14 13 12 10 9 9 9 9 10 12 14 15 16
4 4 5 5 5 6 6 6 7 9 10 10 11 12 12 13 14 15 16 17 18 18 19 19 19 19 18 17 17 16 15 13 12 10 9 9 9 9 9 11 13 15 16
4 4 4 5 5 5 6 6 7 9 10 11 11 12 13 14 14 15 16 17 18 18 19 19 19 19 18 17 17 17 15 14 12 11 10 9 9 8 9 10 12 14 16
3 4 4 4 5 5 6 6 8 9 10 11 12 12 13 14 15 16 16 17 18 18 19 19 19 18 18 18 17 16 15 14 13 11 10 9 9 9 9 9 11 13 15
4 4 5 5 5 6 6 7 8 9 11 12 12 13 14 15 16 16 17 17 18 19 19 19 19 19 19 18 17 16 15 14 13 12 11 10 9 9 9 10 11 13 14
5 5 5 5 6 7 7 8 9 10 12 13 13 14 15 16 17 17 18 18 18 19 19 19 19 19 19 19 18 17 15 14 13 12 12 12 11 10 10 11 12 13 14
6 5 5 6 7 8 8 9 10 11 12 13 14 15 16 17 18 19 19 19 19 20 20 20 20 20 20 19 18 17 16 15 13 13 12 12 11 10 11 11 13 14 14
6 6 7 7 8 9 9 10 11 12 13 14 15 16 17 18 19 20 20 20 21 21 21 21 21 21 21 20 19 18 17 16 15 14 13 12 12 12 12 12 13 14 15
7 8 8 9 10 10 11 12 12 14 15 16 17 18 18 20 21 21 22 22 23 23 23 23 22 22 22 21 20 20 19 17 16 15 14 14 13 13 13 13 13 14 15
9 10 10 11 11 11 12 13 14 15 16 18 19 20 20 21 22 23 24 24 25 25 25 24 24 24 23 22 22 21 20 19 18 17 16 15 15 15 15 15 14 15 15
11 11 12 12 12 12 13 15 16 17 18 19 21 22 23 24 25 25 26 26 27 27 27 27 26 26 25 25 24 23 23 21 20 19 18 17 17 17 16 16 16 16 16
11 12 12 13 14 14 15 17 18 19 20 22 23 24 25 26 27 28 28 29 29 29 29 29 29 28 28 27 27 26 25 24 23 21 20 20 19 19 18 18 18 18 18
12 12 13 15 16 16 17 19 20 21 23 24 25 26 27 28 29 30 31 31 31 31 31 31 31 31 30 30 30 29 28 27 26 25 23 22 22 21 21 21 20 20 20
13 14 15 16 17 18 19 20 22 23 24 25 27 27 28 30 31 32 33 33 33 34 34 34 34 33 33 33 33 32 31 30 29 28 27 25 24 24 23 23 22 22 22
14 15 16 18 19 20 21 22 24 26 27 28 29 31 32 33 34 35 35 35 36 36 36 37 36 36 36 35 35 34 34 33 32 31 30 29 27 26 26 26 25 24 24
17 18 19 20 21 23 24 25 26 28 29 31 32 34 35 36 36 37 38 38 38 38 39 39 39 38 37 37 36 36 35 35 34 33 32 32 31 29 28 28 27 27 26
20 21 22 23 24 25 27 28 29 31 32 33 35 36 37 38 38 39 40 41 41 41 41 41 40 40 39 38 38 38 37 37 36 35 34 34 33 32 32 31 30 29 28
23 24 25 26 27 28 30 31 33 34 35 37 38 39 40 41 41 42 42 43 43 42 42 41 41 40 39 39 39 39 39 39 37 36 36 35 34 34 34 33 32 31 30
27 28 28 29 30 32 33 34 35 36 38 39 41 42 42 43 43 44 44 44 44 43 43 43 42 40 40 39 39 39 39 40 39 38 37 36 36 36 35 35 34 33 32
29 30 31 32 34 35 36 37 38 39 40 42 43 43 44 44 44 45 45 45 45 45 44 43 43 42 41 40 40 40 39 40 40 39 38 37 37 37 37 36 35 35 34
32 33 34 35 37 38 39 40 41 42 43 44 44 45 45 45 45 46 46 46 46 46 45 45 44 43 42 41 41 41 41 40 40 40 39 39 38 39 38 38 37 36 35
35 36 37 38 39 40 41 42 44 45 45 46 45 46 46 47 47 47 47 47 47 47 47 46 46 46 45 44 43 43 43 43 42 41 41 40 39 39 39 37 37 37 36
38 39 40 41 41 42 43 44 45 47 47 47 47 48 48 48 49 49 48 48 49 49 49 48 48 47 47 46 44 43 43 43 43 42 41 41 41 40 40 39 38 38 38
Wind_Direction
294 298 301 304 309 316 321 320 322 325 328 331 334 337 340 344 345 347 349 349 347 347 346 345 344 341 340 337 335 331 326 322 313 301 290 278 264 248 242 237 232 228 226
311 311 313 315 315 321 327 324 329 332 333 331 331 334 338 342 345 347 348 348 348 348 348 346 344 342 340 339 337 334 328 326 320 310 296 283 265 253 246 239 233 231 227
307 309 316 320 318 323 326 325 328 330 330 330 331 334 336 339 342 344 345 346 346 346 347 346 345 343 341 339 337 335 330 327 323 314 301 288 271 256 250 243 234 231 230
301 309 317 318 314 317 321 325 328 330 333 332 331 332 334 336 338 340 342 343 344 344 345 346 345 344 343 340 338 336 331 329 324 316 307 294 278 260 254 246 237 231 230
313 314 316 315 315 316 318 325 331 332 337 337 335 333 332 333 335 336 338 340 342 343 344 345 345 344 343 341 338 337 333 329 324 318 309 297 284 269 260 249 240 235 234
318 322 320 319 320 321 321 329 333 336 338 336 335 333 332 333 335 336 338 338 339 340 340 342 343 343 343 341 339 336 333 329 323 318 313 302 289 275 264 252 243 238 238
318 324 324 323 324 325 326 327 331 335 336 334 332 331 331 331 332 333 334 335 336 337 338 339 339 340 341 340 338 337 332 327 321 316 312 305 292 280 266 255 247 242 242
315 322 323 325 325 325 326 326 328 329 330 333 333 329 328 327 328 329 329 331 332 334 336 337 336 336 337 337 336 333 332 326 319 313 307 301 295 283 269 262 254 247 245
307 309 316 320 318 319 322 324 325 324 324 330 331 329 327 326 326 326 327 327 329 331 333 334 334 335 334 334 333 332 329 325 318 310 303 298 292 282 275 267 259 251 246
299 305 308 319 317 316 318 318 319 320 322 324 325 325 325 325 325 326 326 326 326 327 328 329 330 331 331 331 330 328 325 322 316 310 302 297 291 280 278 271 262 255 249
301 305 306 312 313 312 313 315 317 318 320 322 324 324 324 324 323 323 323 323 324 325 325 324 325 326 327 327 327 324 323 318 313 307 300 295 291 280 276 275 269 261 252
298 300 300 303 304 304 306 309 312 314 316 317 320 321 320 321 321 320 320 319 319 320 320 320 320 320 320 321 322 321 318 316 313 306 297 292 288 281 274 273 269 264 257
296 296 296 298 300 301 304 306 308 311 312 313 315 317 316 317 318 318 317 317 316 316 316 316 316 315 315 315 315 314 313 311 308 305 296 289 285 280 275 270 267 264 259
297 293 293 293 300 302 305 307 309 310 311 312 313 313 314 314 314 315 315 314 314 313 312 312 312 311 311 310 309 307 306 305 302 300 296 290 283 278 274 269 267 263 259
298 295 294 294 299 301 304 306 307 308 309 310 310 311 311 311 311 311 311 312 312 311 310 309 309 307 306 305 304 302 300 298 296 293 290 287 284 279 274 269 265 262 260
299 298 296 297 298 302 302 303 305 307 307 308 308 308 309 309 308 308 308 308 308 308 307 306 305 303 301 300 299 297 295 292 291 288 285 282 280 278 274 269 264 260 258
299 299 298 298 298 301 302 302 304 306 307 307 308 309 309 309 308 307 306 305 305 305 304 302 301 300 298 296 294 292 290 288 286 284 281 278 276 273 271 268 264 259 256
300 301 300 299 299 301 304 303 304 305 306 306 307 307 308 308 308 308 307 305 304 302 301 300 299 298 296 293 291 289 287 285 283 280 277 274 272 270 268 266 263 259 257
300 301 301 301 301 303 305 305 304 305 305 306 307 308 307 307 307 307 307 306 304 301 299 298 297 295 293 291 289 286 284 282 280 278 275 272 269 267 264 263 261 258 256
300 300 301 301 302 302 304 304 305 305 305 306 307 308 308 307 307 307 306 305 304 302 299 298 296 294 292 289 286 284 282 281 278 275 272 270 267 264 262 261 259 257 254
299 300 300 301 301 302 303 303 304 305 305 305 307 307 307 307 306 306 305 304 303 302 300 299 297 294 292 290 286 283 280 279 277 274 270 267 264 262 260 258 257 255 253
299 300 300 300 301 301 303 303 304 305 305 306 306 307 307 306 306 306 305 304 303 302 301 299 296 294 292 289 287 283 279 276 274 272 270 265 261 260 259 257 255 253 252
297 298 299 300 300 302 303 303 304 305 307 307 306 307 306 306 306 305 305 305 304 303 301 299 296 293 291 289 285 282 278 274 272 271 269 265 261 259 257 256 254 253 252
297 299 300 300 301 301 303 303 304 306 306 306 306 306 306 306 306 306 306 305 304 303 301 298 295 292 289 288 284 280 276 273 271 269 267 264 261 258 256 255 253 251 251
298 299 300 301 301 301 302 303 303 305 306 306 305 306 306 306 306 306 306 305 304 303 301 298 295 292 289 286 283 280 276 273 270 267 265 263 259 257 255 254 253 250 249
298 300 301 301 301 301 302 303 303 304 305 305 305 305 306 305 306 306 306 305 304 302 300 297 295 292 289 285 282 279 276 274 270 266 263 261 258 255 253 251 249 248 247
Height
5857 5858 5858 5857 5857 5857 5857 5856 5856 5856 5855 5855 5854 5853 5852 5851 5849 5847 5845 5842 5840 5837 5834 5831 5828 5826 5823 5820 5817 5815 5813 5812 5811 5810 5810 5810 5810 5811 5813 5815 5818 5820 5823
5856 5856 5856 5856 5856 5856 5856 5855 5854 5854 5854 5853 5853 5852 5851 5850 5848 5846 5844 5841 5839 5836 5833 5831 5827 5824 5821 5819 5816 5814 5812 5810 5809 5808 5807 5808 5809 5809 5810 5812 5815 5817 5820
5855 5855 5855 5855 5855 5855 5854 5854 5854 5853 5853 5852 5851 5850 5850 5848 5847 5845 5843 5840 5838 5835 5832 5829 5826 5823 5820 5817 5815 5812 5810 5808 5807 5806 5806 5806 5806 5807 5808 5809 5812 5814 5817
5854 5854 5854 5854 5853 5853 5853 5853 5852 5852 5851 5850 5850 5849 5848 5847 5845 5844 5842 5839 5837 5834 5831 5828 5825 5822 5819 5816 5813 5811 5809 5807 5806 5804 5804 5804 5804 5805 5806 5807 5809 5811 5814
5853 5853 5853 5853 5853 5852 5852 5852 5851 5851 5850 5849 5848 5847 5846 5845 5844 5842 5840 5838 5835 5833 5830 5827 5824 5821 5818 5815 5812 5810 5807 5806 5804 5803 5802 5802 5802 5802 5804 5805 5806 5808 5811
5851 5851 5851 5852 5851 5851 5851 5850 5850 5849 5849 5848 5847 5846 5845 5843 5842 5840 5838 5836 5834 5831 5829 5826 5823 5820 5816 5814 5811 5808 5806 5804 5803 5802 5801 5800 5800 5801 5801 5802 5804 5805 5808
5850 5850 5850 5850 5850 5849 5849 5849 5848 5848 5847 5846 5845 5844 5843 5841 5840 5838 5836 5834 5832 5830 5827 5824 5821 5818 5815 5812 5810 5807 5805 5803 5801 5800 5799 5799 5799 5799 5799 5800 5801 5803 5804
5849 5849 5849 5849 5849 5848 5848 5847 5847 5846 5845 5844 5843 5842 5841 5839 5838 5836 5834 5832 5830 5828 5825 5822 5820 5817 5814 5811 5808 5805 5803 5801 5800 5798 5798 5797 5797 5797 5797 5798 5799 5800 5802
5848 5847 5847 5847 5847 5847 5846 5846 5845 5844 5843 5842 5841 5840 5838 5837 5835 5833 5832 5830 5827 5825 5823 5820 5817 5815 5812 5809 5806 5804 5802 5800 5798 5796 5796 5795 5795 5795 5795 5795 5796 5797 5798
5846 5846 5846 5846 5845 5845 5844 5844 5843 5842 5841 5840 5839 5837 5836 5834 5832 5831 5829 5827 5824 5822 5820 5817 5815 5812 5810 5807 5804 5802 5799 5798 5796 5794 5793 5793 5793 5792 5792 5792 5793 5793 5795
5845 5844 5844 5844 5843 5843 5842 5842 5841 5840 5839 5837 5836 5835 5833 5831 5830 5828 5826 5824 5821 5819 5816 5814 5812 5809 5807 5804 5802 5800 5797 5795 5794 5792 5791 5790 5790 5789 5789 5789 5790 5790 5791
5842 5842 5842 5841 5841 5840 5840 5839 5838 5837 5836 5835 5833 5832 5830 5828 5826 5824 5822 5820 5818 5815 5813 5810 5808 5805 5803 5801 5799 5797 5795 5793 5791 5789 5788 5787 5787 5786 5786 5786 5786 5786 5787
5840 5839 5839 5839 5838 5837 5837 5836 5835 5834 5833 5831 5830 5828 5826 5824 5822 5820 5817 5815 5813 5810 5808 5806 5803 5801 5799 5797 5795 5793 5791 5789 5788 5786 5785 5784 5783 5783 5782 5782 5782 5783 5783
5837 5836 5836 5835 5834 5834 5833 5832 5831 5830 5829 5827 5825 5823 5822 5819 5817 5814 5812 5809 5807 5805 5802 5800 5798 5795 5793 5791 5789 5787 5786 5785 5783 5782 5781 5780 5779 5778 5778 5778 5778 5779 5779
5833 5833 5832 5831 5831 5830 5829 5828 5827 5825 5824 5822 5820 5818 5816 5814 5811 5808 5806 5803 5800 5798 5795 5793 5791 5789 5787 5785 5783 5781 5780 5778 5777 5777 5775 5774 5774 5773 5773 5773 5773 5774 5774
5830 5829 5828 5827 5827 5826 5825 5823 5822 5821 5819 5817 5815 5812 5810 5807 5805 5802 5799 5796 5793 5790 5788 5785 5783 5781 5779 5777 5775 5773 5772 5771 5770 5769 5769 5768 5768 5767 5767 5767 5767 5768 5769
5826 5825 5824 5823 5822 5821 5820 5818 5817 5815 5813 5810 5808 5805 5803 5800 5797 5794 5791 5788 5785 5782 5779 5776 5774 5772 5770 5767 5765 5764 5762 5762 5761 5761 5761 5761 5760 5760 5760 5760 5760 5761 5762
5823 5821 5820 5819 5818 5816 5814 5812 5810 5808 5806 5803 5800 5798 5795 5791 5788 5785 5781 5778 5775 5772 5769 5766 5763 5761 5759 5756 5754 5753 5752 5751 5751 5750 5750 5751 5751 5752 5752 5752 5753 5754 5755
5818 5817 5815 5814 5812 5810 5808 5806 5804 5801 5798 5796 5793 5789 5786 5782 5778 5774 5771 5767 5763 5760 5757 5754 5751 5749 5747 5744 5742 5740 5740 5739 5739 5739 5739 5740 5741 5742 5742 5743 5744 5746 5747
5814 5812 5810 5808 5806 5804 5801 5799 5796 5793 5790 5787 5783 5780 5776 5772 5767 5763 5759 5755 5751 5747 5744 5741 5738 5735 5733 5731 5729 5727 5727 5727 5727 5727 5728 5728 5729 5730 5731 5732 5734 5736 5739
5808 5806 5804 5802 5799 5797 5794 5791 5788 5785 5781 5778 5774 5769 5765 5760 5756 5751 5747 5742 5738 5734 5730 5727 5724 5721 5719 5717 5715 5713 5712 5713 5713 5713 5714 5715 5716 5717 5719 5720 5723 5726 5728
5801 5799 5797 5794 5791 5788 5785 5782 5779 5775 5771 5767 5763 5758 5753 5748 5743 5738 5733 5729 5724 5720 5716 5713 5710 5708 5705 5702 5700 5699 5698 5698 5698 5699 5700 5702 5703 5705 5707 5709 5712 5714 5717
5794 5791 5789 5786 5783 5779 5776 5773 5769 5765 5760 5756 5751 5746 5740 5735 5730 5725 5720 5715 5710 5706 5702 5698 5696 5693 5691 5688 5686 5684 5683 5683 5683 5684 5686 5688 5690 5691 5694 5697 5700 5703 5706
5786 5783 5780 5777 5773 5770 5766 5762 5757 5753 5748 5743 5738 5733 5728 5722 5717 5712 5707 5702 5697 5692 5688 5684 5681 5678 5676 5673 5670 5669 5668 5668 5669 5670 5671 5673 5676 5678 5681 5684 5688 5691 5695
5777 5774 5770 5767 5763 5759 5755 5750 5746 5741 5736 5731 5725 5720 5714 5709 5704 5699 5694 5689 5684 5678 5673 5669 5665 5662 5660 5658 5655 5653 5653 5653 5653 5654 5657 5659 5662 5665 5668 5672 5675 5679 5683
5767 5764 5760 5756 5752 5748 5743 5738 5733 5728 5723 5718 5712 5707 5701 5696 5691 5686 5681 5676 5670 5664 5658 5653 5649 5646 5643 5640 5639 5637 5637 5637 5638 5639 5641 5644 5647 5650 5654 5658 5662 5667 5671